| time (UTC) | temp F | wind direction | speed MPH | gust MPH | rain 1hr in | rain 24hr in | rain mn in | humidity % | barometer mb |
| 20260509214537 | 56 | 239 | 9.0 | 11.0 | 0.00 | 0.09 | 0.09 | 75 | 1000.9 |
| 20260509213035 | 57 | 248 | 8.0 | 13.0 | 0.00 | 0.09 | 0.09 | 75 | 1000.8 |
| 20260509211530 | 58 | 236 | 10.0 | 13.0 | 0.00 | 0.09 | 0.09 | 76 | 1001.1 |
| 20260509210035 | 59 | 228 | 9.0 | 11.0 | 0.00 | 0.09 | 0.09 | 80 | 1001.3 |
| 20260509204529 | 56 | 239 | 6.0 | 11.0 | 0.00 | 0.09 | 0.09 | 92 | 1000.9 |
| 20260509203028 | 55 | 111 | 6.0 | 12.0 | 0.01 | 0.09 | 0.09 | 86 | 1000.9 |
| 20260509201527 | 55 | 149 | 1.0 | 7.0 | 0.09 | 0.09 | 0.09 | 73 | 1001.0 |
| 20260509200026 | 53 | 232 | 4.0 | 10.0 | 0.09 | 0.09 | 0.09 | 75 | 1001.2 |
| 20260509194537 | 51 | 225 | 2.0 | 7.0 | 0.09 | 0.09 | 0.09 | 83 | 1001.3 |
| 20260509193025 | 51 | 231 | 20.0 | 47.0 | 0.08 | 0.08 | 0.08 | 91 | 1002.0 |
| 20260509191522 | 62 | 153 | 4.0 | 14.0 | 0.00 | 0.00 | 0.00 | 66 | 1000.2 |
| 20260509190025 | 64 | 235 | 7.0 | 22.0 | 0.00 | 0.00 | 0.00 | 60 | 1000.0 |
| 20260509184522 | 65 | 239 | 5.0 | 15.0 | 0.00 | 0.00 | 0.00 | 56 | 1000.2 |
| 20260509183019 | 66 | 250 | 4.0 | 18.0 | 0.00 | 0.00 | 0.00 | 53 | 1000.2 |
| 20260509181516 | 65 | 150 | 4.0 | 13.0 | 0.00 | 0.00 | 0.00 | 57 | 1000.2 |
| 20260509180013 | 64 | 229 | 8.0 | 11.0 | 0.00 | 0.00 | 0.00 | 61 | 1000.4 |
| 20260509174514 | 63 | 245 | 8.0 | 17.0 | 0.00 | 0.00 | 0.00 | 62 | 1000.7 |
| 20260509173012 | 63 | 139 | 4.0 | 13.0 | 0.00 | 0.00 | 0.00 | 64 | 1001.0 |
| 20260509171509 | 63 | 233 | 3.0 | 10.0 | 0.00 | 0.00 | 0.00 | 62 | 1001.2 |
| 20260509170011 | 63 | 264 | 3.0 | 11.0 | 0.00 | 0.00 | 0.00 | 64 | 1001.0 |
| 20260509164511 | 65 | 273 | 5.0 | 10.0 | 0.00 | 0.00 | 0.00 | 63 | 1000.8 |
| 20260509163003 | 63 | 103 | 1.0 | 9.0 | 0.00 | 0.00 | 0.00 | 69 | 1001.0 |
| 20260509161606 | 62 | 152 | 1.0 | 7.0 | 0.00 | 0.00 | 0.00 | 71 | 1001.7 |
| 20260509160101 | 61 | 219 | 2.0 | 9.0 | 0.00 | 0.00 | 0.00 | 75 | 1002.0 |
| 20260509154554 | 59 | 193 | 1.0 | 5.0 | 0.00 | 0.00 | 0.00 | 78 | 1002.2 |
| 20260509153058 | 59 | 143 | 0.0 | 3.0 | 0.00 | 0.00 | 0.00 | 80 | 1002.6 |
| 20260509151546 | 58 | 242 | 1.0 | 8.0 | 0.00 | 0.00 | 0.00 | 79 | 1003.8 |
| 20260509150045 | 57 | 225 | 1.0 | 9.0 | 0.00 | 0.00 | 0.00 | 79 | 1004.2 |
| 20260509144549 | 57 | 212 | 4.0 | 7.0 | 0.00 | 0.00 | 0.00 | 78 | 1004.0 |
| 20260509143043 | 58 | 193 | 3.0 | 9.0 | 0.00 | 0.00 | 0.00 | 78 | 1003.7 |
| 20260509141543 | 57 | 253 | 2.0 | 8.0 | 0.00 | 0.00 | 0.00 | 80 | 1003.5 |
| 20260509140053 | 56 | 259 | 3.0 | 8.0 | 0.00 | 0.00 | 0.00 | 83 | 1003.7 |
| 20260509134535 | 55 | 194 | 2.0 | 7.0 | 0.00 | 0.00 | 0.00 | 86 | 1003.4 |
| 20260509133037 | 55 | 106 | 2.0 | 6.0 | 0.00 | 0.00 | 0.00 | 86 | 1003.5 |
| 20260509131528 | 54 | 257 | 2.0 | 5.0 | 0.00 | 0.00 | 0.00 | 90 | 1003.8 |
| 20260509130025 | 52 | 231 | 1.0 | 5.0 | 0.00 | 0.00 | 0.00 | 92 | 1004.1 |
| 20260509124522 | 52 | 219 | 0.0 | 4.0 | 0.00 | 0.00 | 0.00 | 93 | 1004.2 |
| 20260509123018 | 51 | 211 | 1.0 | 4.0 | 0.00 | 0.00 | 0.00 | 93 | 1004.3 |
| 20260509121514 | 50 | 217 | 0.0 | 4.0 | 0.00 | 0.00 | 0.00 | 91 | 1004.8 |
| 20260509120012 | 49 | 113 | 1.0 | 4.0 | 0.00 | 0.00 | 0.00 | 88 | 1004.8 |
| 20260509114508 | 49 | 188 | 0.0 | 3.0 | 0.00 | 0.00 | 0.00 | 84 | 1004.6 |
| 20260509113006 | 48 | 62 | 0.0 | 3.0 | 0.00 | 0.00 | 0.00 | 82 | 1004.7 |
| 20260509111504 | 48 | 155 | 0.0 | 1.0 | 0.00 | 0.00 | 0.00 | 81 | 1004.5 |
| 20260509110004 | 48 | 193 | 0.0 | 1.0 | 0.00 | 0.00 | 0.00 | 80 | 1004.4 |
| 20260509104503 | 48 | 226 | 0.0 | 4.0 | 0.00 | 0.00 | 0.00 | 78 | 1004.6 |
| 20260509103002 | 47 | 186 | 0.0 | 1.0 | 0.00 | 0.00 | 0.00 | 78 | 1004.5 |
| 20260509101505 | 47 | 226 | 0.0 | 3.0 | 0.00 | 0.00 | 0.00 | 78 | 1004.5 |
| 20260509094603 | 46 | 145 | 0.0 | 3.0 | 0.00 | 0.00 | 0.00 | 78 | 1004.8 |
| 20260509093059 | 45 | 208 | 0.0 | 4.0 | 0.00 | 0.00 | 0.00 | 80 | 1005.0 |
| 20260509091557 | 44 | 139 | 0.0 | 2.0 | 0.00 | 0.00 | 0.00 | 83 | 1004.9 |
| 20260509090059 | 43 | 132 | 0.0 | 2.0 | 0.00 | 0.00 | 0.00 | 88 | 1004.9 |
| 20260509084600 | 44 | 139 | 0.0 | 1.0 | 0.00 | 0.00 | 0.00 | 89 | 1005.1 |
| 20260509083105 | 44 | 147 | 0.0 | 2.0 | 0.00 | 0.00 | 0.00 | 90 | 1005.1 |
| 20260509081549 | 44 | 138 | 0.0 | 1.0 | 0.00 | 0.00 | 0.00 | 91 | 1005.1 |
| 20260509080051 | 45 | 136 | 0.0 | 2.0 | 0.00 | 0.00 | 0.00 | 91 | 1005.2 |
| 20260509074607 | 44 | 148 | 0.0 | 3.0 | 0.00 | 0.00 | 0.00 | 92 | 1005.3 |
| 20260509073102 | 44 | 134 | 0.0 | 2.0 | 0.00 | 0.00 | 0.00 | 93 | 1005.2 |
| 20260509071552 | 44 | 146 | 0.0 | 2.0 | 0.00 | 0.00 | 0.00 | 93 | 1005.4 |
| 20260509070047 | 45 | 131 | 0.0 | 2.0 | 0.00 | 0.00 | 0.00 | 93 | 1005.5 |
| 20260509064540 | 45 | 138 | 0.0 | 2.0 | 0.00 | 0.00 | 0.00 | 93 | 1005.6 |
| 20260509063053 | 45 | 139 | 0.0 | 3.0 | 0.00 | 0.00 | 0.00 | 92 | 1005.8 |
| 20260509061537 | 45 | 131 | 0.0 | 4.0 | 0.00 | 0.00 | 0.00 | 92 | 1006.0 |
| 20260509060039 | 45 | 139 | 0.0 | 2.0 | 0.00 | 0.00 | 0.00 | 91 | 1006.2 |
| 20260509054535 | 46 | 152 | 0.0 | 6.0 | 0.00 | 0.00 | 0.00 | 91 | 1006.3 |
| 20260509053047 | 46 | 145 | 0.0 | 3.0 | 0.00 | 0.00 | 0.00 | 90 | 1006.4 |
| 20260509051527 | 46 | 142 | 0.0 | 2.0 | 0.00 | 0.00 | 0.00 | 89 | 1006.5 |
| 20260509050024 | 46 | 142 | 0.0 | 1.0 | 0.00 | 0.00 | 0.00 | 89 | 1006.7 |
| 20260509044521 | 46 | 159 | 0.0 | 2.0 | 0.00 | 0.00 | 0.00 | 88 | 1006.8 |
| 20260509043037 | 47 | 146 | 0.0 | 5.0 | 0.00 | 0.00 | 0.00 | 87 | 1006.8 |
| 20260509041517 | 47 | 142 | 0.0 | 2.0 | 0.00 | 0.00 | 0.00 | 86 | 1007.1 |
| 20260509040013 | 48 | 231 | 0.0 | 2.0 | 0.00 | 0.00 | 0.00 | 85 | 1007.3 |
| 20260509034513 | 48 | 143 | 0.0 | 4.0 | 0.00 | 0.00 | 0.00 | 84 | 1007.4 |
| 20260509033011 | 49 | 148 | 0.0 | 2.0 | 0.00 | 0.00 | 0.00 | 83 | 1007.5 |
| 20260509031513 | 49 | 169 | 0.0 | 4.0 | 0.00 | 0.00 | 0.00 | 82 | 1007.6 |
| 20260509030010 | 49 | 102 | 0.0 | 2.0 | 0.00 | 0.00 | 0.00 | 82 | 1007.8 |
| 20260509024510 | 49 | 197 | 0.0 | 1.0 | 0.00 | 0.00 | 0.00 | 80 | 1008.1 |
| 20260509023009 | 49 | 141 | 0.0 | 2.0 | 0.00 | 0.00 | 0.00 | 77 | 1008.0 |
| 20260509021509 | 49 | 186 | 0.0 | 4.0 | 0.00 | 0.00 | 0.00 | 73 | 1008.0 |
| 20260509020008 | 49 | 177 | 0.0 | 4.0 | 0.00 | 0.00 | 0.00 | 70 | 1007.9 |
| 20260509014518 | 50 | 155 | 0.0 | 1.0 | 0.00 | 0.00 | 0.00 | 68 | 1007.8 |
| 20260509013006 | 51 | 130 | 0.0 | 2.0 | 0.00 | 0.00 | 0.00 | 65 | 1007.7 |
| 20260509011506 | 52 | 140 | 0.0 | 2.0 | 0.00 | 0.00 | 0.00 | 64 | 1007.6 |
| 20260509010005 | 53 | 180 | 0.0 | 1.0 | 0.00 | 0.00 | 0.00 | 62 | 1007.5 |
| 20260509004504 | 54 | 156 | 1.0 | 5.0 | 0.00 | 0.00 | 0.00 | 61 | 1007.4 |
| 20260509003004 | 55 | 191 | 0.0 | 4.0 | 0.00 | 0.00 | 0.00 | 59 | 1007.3 |
| 20260509001507 | 56 | 257 | 0.0 | 4.0 | 0.00 | 0.00 | 0.00 | 58 | 1007.2 |
| 20260509000003 | 58 | 143 | 0.0 | 4.0 | 0.00 | 0.00 | 0.00 | 56 | 1007.2 |
| 20260508234502 | 59 | 63 | 0.0 | 2.0 | 0.00 | 0.00 | 0.00 | 54 | 1007.3 |
| 20260508233002 | 58 | 136 | 1.0 | 5.0 | 0.00 | 0.00 | 0.00 | 55 | 1007.2 |
| 20260508231502 | 58 | 71 | 1.0 | 4.0 | 0.00 | 0.00 | 0.00 | 53 | 1007.2 |
| 20260508230002 | 61 | 245 | 1.0 | 5.0 | 0.00 | 0.00 | 0.00 | 50 | 1007.2 |
| 20260508224558 | 59 | 219 | 1.0 | 9.0 | 0.00 | 0.00 | 0.00 | 53 | 1007.3 |
| 20260508223053 | 55 | 47 | 3.0 | 4.0 | 0.00 | 0.00 | 0.00 | 63 | 1007.5 |
| 20260508221555 | 55 | 352 | 3.0 | 5.0 | 0.00 | 0.00 | 0.00 | 56 | 1007.6 |
| 20260508220053 | 55 | 316 | 4.0 | 7.0 | 0.00 | 0.00 | 0.00 | 53 | 1007.5 |